{"data":{"norad_id":63241,"intl_designator":"2025-052AH","name":"TRANSPORTER-13 OBJECT AH","alt_names":[],"object_type":"PAYLOAD","status":"ACTIVE","operator":null,"country":"TBD","launch_date":"2025-03-15","launch_site_code":"AFWTR","launch_vehicle":null,"mission":null,"orbit_class":"UNKNOWN","rcs_meters":null,"size_class":null,"mass_kg":null,"dimensions":null,"purposes":[],"wikipedia_slug":null,"has_3d_model":false,"image_url":null,"decayed_at":null,"tle_current":{"epoch":"2026-09-22T16:26:43.312128Z","epoch_age_seconds":119995,"freshness":"FRESH","line1":"1 63241U 25052AH  26265.68522352  .00007136  00000+0  25256-3 0  9993","line2":"2 63241  97.3696 158.2501 0007001 157.1342 203.0212 15.29429369 84834","mean_motion":15.29429369,"eccentricity":0.0007001,"inclination_deg":97.3696,"raan_deg":158.2501,"arg_perigee_deg":157.1342,"mean_anomaly_deg":203.0212,"bstar":0.00025256,"rev_number":8483,"period_min":94.152762408474,"perigee_km":472.71735741104,"apogee_km":482.31664414293,"semimajor_km":6855.654000777,"source":"CELESTRAK","updated_at":"2026-09-23T09:00:21.906771Z"}}}